Weather History for Bennettsville, SC

Change the Weather History Date:

Wednesday, June 12, 2013

  Actual Average (KFLO) Record (KFLO)
Temperature  
Mean Temperature 83 °F 78 °F  
Max Temperature 98 °F 88 °F 96 °F (1976)
Min Temperature 68 °F 68 °F 50 °F (1972)
Degree Days  
Heating Degree Days 0 0  
Month to date heating degree days 0  
Since 1 June heating degree days 0  
Since 1 July heating degree days 2523  
Cooling Degree Days 18 13  
Month to date cooling degree days 139  
Year to date cooling degree days 446  
Since 1 June cooling degree days 139  
Growing Degree Days 33 (Base 50)    
Moisture  
Dew Point 69 °F    
Average Humidity 69    
Maximum Humidity 100    
Minimum Humidity 37    
Precipitation  
Precipitation 0.00 in 0.15 in 2.58 in (2006)
Month to date precipitation 1.88  
Year to date precipitation 17.24  
Sea Level Pressure  
Sea Level Pressure 29.95 in    
Wind  
Wind Speed 2 mph (SW)    
Max Wind Speed 7 mph    
Max Gust Speed -    
Visibility 8 miles    
Events      
T = Trace of Precipitation, MM = Missing Value Source: NWS Daily Summary

Daily Weather History Graph

Daily Weather History Graph

Search for Another Location

Airport:

Trip Planner

Search our weather history database for the weather conditions in past years. The results will help you decide how hot, cold, wet, or windy it might be!

Date:

Astronomy

Jun. 12, 2013 Rise Set
Actual Time 6:05 AM EDT 8:32 PM EDT
Civil Twilight 5:36 AM EDT 9:01 PM EDT
Nautical Twilight 4:59 AM EDT 9:38 PM EDT
Astronomical Twilight 4:19 AM EDT 10:18 PM EDT
Moon 9:36 AM EDT (6/12) 11:15 PM EDT (6/12)
Length of Visible Light 15h 25m
Length of Day
14h 27m
Waxing Crescent, 14% of the Moon is Illuminated
Jun 12
Waxing Crescent
Jun 16
First Quarter
Jun 23
Full
Jun 30
Last Quarter
Jul 8
New

Hourly Weather History & Observations

Time (EDT) Temp. Heat Index Dew Point Humidity Pressure Visibility Wind Dir Wind Speed Gust Speed Precip Events Conditions
12:15 AM 69.8 °F - 69.8 °F 100% 29.99 in 7.0 mi Calm Calm - N/A   Clear
12:35 AM 69.8 °F - 69.8 °F 100% 29.99 in 7.0 mi Calm Calm - N/A   Clear
12:55 AM 69.8 °F - 69.8 °F 100% 29.98 in 7.0 mi Calm Calm - N/A   Clear
1:15 AM 69.8 °F - 69.8 °F 100% 29.97 in 7.0 mi Calm Calm - N/A   Clear
1:35 AM 69.8 °F - 69.8 °F 100% 29.97 in 5.0 mi Calm Calm - N/A   Clear
1:55 AM 69.8 °F - 69.8 °F 100% 29.96 in 7.0 mi Calm Calm - N/A   Clear
2:15 AM 69.8 °F - 69.8 °F 100% 29.95 in 7.0 mi Calm Calm - N/A   Scattered Clouds
2:35 AM 68.0 °F - 68.0 °F 100% 29.96 in 7.0 mi Calm Calm - N/A   Scattered Clouds
2:55 AM 69.8 °F - 69.8 °F 100% 29.95 in 5.0 mi Calm Calm - N/A   Mostly Cloudy
3:15 AM 69.8 °F - 69.8 °F 100% 29.95 in 5.0 mi Calm Calm - N/A   Scattered Clouds
3:35 AM 68.0 °F - 68.0 °F 100% 29.95 in 5.0 mi Calm Calm - N/A   Clear
3:55 AM 69.8 °F - 69.8 °F 100% 29.95 in 4.0 mi Calm Calm - N/A   Scattered Clouds
4:15 AM 68.0 °F - 68.0 °F 100% 29.95 in 5.0 mi Calm Calm - N/A   Scattered Clouds
4:35 AM 68.0 °F - 68.0 °F 100% 29.95 in 5.0 mi Calm Calm - N/A   Clear
4:55 AM 68.0 °F - 68.0 °F 100% 29.95 in 5.0 mi Calm Calm - N/A   Clear
5:15 AM 68.0 °F - 68.0 °F 100% 29.96 in 4.0 mi Calm Calm - N/A   Clear
5:35 AM 68.0 °F - 68.0 °F 100% 29.97 in 4.0 mi Calm Calm - N/A   Clear
5:55 AM 68.0 °F - 68.0 °F 100% 29.97 in 5.0 mi Calm Calm - N/A   Clear
6:15 AM 68.0 °F - 68.0 °F 100% 29.97 in 5.0 mi Calm Calm - N/A   Clear
6:35 AM 68.0 °F - 68.0 °F 100% 29.98 in 3.0 mi Calm Calm - N/A   Clear
6:55 AM 68.0 °F - 68.0 °F 100% 29.98 in 3.0 mi Calm Calm - N/A   Clear
7:15 AM 69.8 °F - 69.8 °F 100% 29.98 in 4.0 mi Calm Calm - N/A   Clear
7:35 AM 71.6 °F - 71.6 °F 100% 29.99 in 7.0 mi Calm Calm - N/A   Clear
7:55 AM 73.4 °F - 73.4 °F 100% 29.99 in 10.0 mi Calm Calm - N/A   Clear
8:15 AM 77.0 °F - 71.6 °F 83% 29.99 in 10.0 mi Calm Calm - N/A   Clear
8:35 AM 80.6 °F 84.6 °F 71.6 °F 74% 29.99 in 10.0 mi Calm Calm - N/A   Clear
8:55 AM 82.4 °F 87.2 °F 71.6 °F 70% 30.00 in 10.0 mi Calm Calm - N/A   Clear
9:15 AM 84.2 °F 89.6 °F 71.6 °F 66% 30.00 in 10.0 mi WNW 3.5 mph - N/A   Clear
9:35 AM 86.0 °F 90.4 °F 69.8 °F 58% 30.00 in 10.0 mi West 3.5 mph - N/A   Clear
9:55 AM 86.0 °F 90.4 °F 69.8 °F 58% 29.99 in 10.0 mi Calm Calm - N/A   Clear
10:15 AM 87.8 °F 90.4 °F 66.2 °F 49% 29.98 in 10.0 mi SSE 3.5 mph - N/A   Clear
10:35 AM 89.6 °F 92.2 °F 66.2 °F 46% 29.98 in 10.0 mi South 3.5 mph - N/A   Clear
10:55 AM 89.6 °F 90.1 °F 62.6 °F 40% 29.99 in 10.0 mi SW 4.6 mph - N/A   Clear
11:15 AM 91.4 °F 94.0 °F 66.2 °F 43% 29.99 in 10.0 mi SW 4.6 mph - N/A   Clear
11:35 AM 91.4 °F 93.2 °F 64.4 °F 41% 29.99 in 10.0 mi South 5.8 mph - N/A   Clear
11:55 AM 91.4 °F 93.2 °F 64.4 °F 41% 29.98 in 10.0 mi South 3.5 mph - N/A   Clear
12:15 PM 91.4 °F 93.2 °F 64.4 °F 41% 29.99 in 10.0 mi SW 4.6 mph - N/A   Clear
12:35 PM 93.2 °F 96.2 °F 66.2 °F 41% 29.98 in 10.0 mi South 3.5 mph - N/A   Clear
12:55 PM 91.4 °F 94.0 °F 66.2 °F 43% 29.98 in 10.0 mi South 6.9 mph - N/A   Clear
1:15 PM 93.2 °F 96.2 °F 66.2 °F 41% 29.97 in 10.0 mi SSW 6.9 mph - N/A   Clear
1:35 PM 95.0 °F 98.5 °F 66.2 °F 39% 29.97 in 10.0 mi South 3.5 mph - N/A   Clear
1:55 PM 95.0 °F 99.5 °F 68.0 °F 41% 29.96 in 10.0 mi South 6.9 mph - N/A   Clear
2:15 PM 95.0 °F 99.5 °F 68.0 °F 41% 29.96 in 10.0 mi SSW 4.6 mph - N/A   Clear
2:35 PM 96.8 °F 101.8 °F 68.0 °F 39% 29.95 in 10.0 mi South 5.8 mph - N/A   Clear
2:55 PM 96.8 °F 101.8 °F 68.0 °F 39% 29.95 in 10.0 mi SSW 6.9 mph - N/A   Clear
3:15 PM 95.0 °F 99.5 °F 68.0 °F 41% 29.95 in 10.0 mi South 5.8 mph - N/A   Clear
3:35 PM 96.8 °F 101.8 °F 68.0 °F 39% 29.94 in 10.0 mi SSW 4.6 mph - N/A   Scattered Clouds
3:55 PM 96.8 °F 101.8 °F 68.0 °F 39% 29.93 in 10.0 mi South 6.9 mph - N/A   Scattered Clouds
4:15 PM 96.8 °F 101.8 °F 68.0 °F 39% 29.93 in 10.0 mi South 5.8 mph - N/A   Clear
4:35 PM 98.6 °F 105.5 °F 69.8 °F 39% 29.92 in 10.0 mi SSW 6.9 mph - N/A   Clear
4:55 PM 96.8 °F 101.8 °F 68.0 °F 39% 29.91 in 10.0 mi SW 4.6 mph - N/A   Clear
5:15 PM 98.6 °F 104.1 °F 68.0 °F 37% 29.90 in 10.0 mi SW 4.6 mph - N/A   Clear
5:35 PM 96.8 °F 101.8 °F 68.0 °F 39% 29.90 in 10.0 mi West 3.5 mph - N/A   Clear
5:55 PM 96.8 °F 101.8 °F 68.0 °F 39% 29.89 in 10.0 mi WNW 3.5 mph - N/A   Clear
6:15 PM 96.8 °F 101.8 °F 68.0 °F 39% 29.90 in 10.0 mi West 3.5 mph - N/A   Clear
6:35 PM 96.8 °F 101.8 °F 68.0 °F 39% 29.90 in 10.0 mi WNW 5.8 mph - N/A   Clear
6:55 PM 95.0 °F 101.3 °F 69.8 °F 44% 29.90 in 10.0 mi WNW 4.6 mph - N/A   Clear
7:15 PM 95.0 °F 101.3 °F 69.8 °F 44% 29.90 in 10.0 mi West 5.8 mph - N/A   Clear
7:35 PM 91.4 °F 96.8 °F 69.8 °F 49% 29.91 in 10.0 mi West 3.5 mph - N/A   Clear
7:55 PM 91.4 °F 98.4 °F 71.6 °F 52% 29.91 in 10.0 mi WNW 3.5 mph - N/A   Clear
8:15 PM 89.6 °F 96.2 °F 71.6 °F 55% 29.91 in 10.0 mi Calm Calm - N/A   Clear
8:35 PM 86.0 °F 93.4 °F 73.4 °F 66% 29.91 in 10.0 mi SSW 3.5 mph - N/A   Clear
8:55 PM 84.2 °F 90.9 °F 73.4 °F 70% 29.90 in 10.0 mi West 3.5 mph - N/A   Clear
9:15 PM 84.2 °F 90.9 °F 73.4 °F 70% 29.90 in 10.0 mi South 3.5 mph - N/A   Clear
9:35 PM 82.4 °F 88.2 °F 73.4 °F 74% 29.91 in 10.0 mi WSW 3.5 mph - N/A   Clear
9:55 PM 82.4 °F 88.2 °F 73.4 °F 74% 29.91 in 10.0 mi WSW 3.5 mph - N/A   Clear
10:15 PM 80.6 °F 86.2 °F 75.2 °F 84% 29.91 in 10.0 mi Calm Calm - N/A   Clear
10:35 PM 78.8 °F - 73.4 °F 83% 29.91 in 10.0 mi Calm Calm - N/A   Clear
10:55 PM 78.8 °F - 75.2 °F 89% 29.91 in 10.0 mi Calm Calm - N/A   Clear
11:15 PM 80.6 °F 87.1 °F 77.0 °F 89% 29.90 in 10.0 mi Calm Calm - N/A   Clear
11:35 PM 80.6 °F 87.1 °F 77.0 °F 89% 29.89 in 10.0 mi Calm Calm - N/A   Clear
11:55 PM 78.8 °F - 77.0 °F 94% 29.89 in 10.0 mi Calm Calm - N/A   Clear